Simultaneous Nadir Overpasses (SNOs) Predictions

Prediction of SNOs between GOES-15 and NOAA-20 Satellite Orbit:

Table of predicted SNOs for the next 14.0 days since TLE Epoch: 7/4/2020
Index Date Time (GOES-15) GOES-15 Lat,Lon NOAA-20 Lat,Lon Distance(km) Time Diff (sec)
1 07/04/2020 21:46:19 -0.02,-128.18 0.67,-125.13 348.39 80
2 07/06/2020 10:08:06 0.02,-128.27 0.50,-130.40 242.68 80
3 07/07/2020 09:46:41 0.02,-128.28 -0.55,-125.87 275.56 80
4 07/08/2020 22:08:37 -0.02,-128.25 -0.65,-131.17 331.91 80
5 07/09/2020 21:52:31 -0.02,-128.27 0.34,-126.63 186.66 80
6 07/11/2020 10:14:18 0.03,-128.36 0.83,-131.90 404.11 80
7 07/12/2020 09:52:54 0.02,-128.38 -0.22,-127.38 113.98 80
8 07/13/2020 22:14:49 -0.03,-128.34 -0.98,-132.68 494.51 80
9 07/14/2020 21:58:44 -0.02,-128.35 0.02,-128.14 23.48 80
10 07/17/2020 10:01:47 0.01,-128.44 0.11,-128.89 50.89 80
